Temperature
18 19 19 20 20 19 18 17 17 17 17 18 18 18 19 19 19 18 18 18 18 17 17 17 17 16 16 16 16 16 15 15 15 15 15 15 15 15 15 15 15 15 15 15
18 19 19 19 19 19 19 19 18 18 18 18 19 19 19 18 18 18 18 18 17 17 17 17 17 16 16 16 16 16 15 15 15 15 15 15 15 15 15 15 15 15 15 15
16 17 19 18 19 19 19 19 19 18 18 18 18 18 18 18 18 18 18 18 17 17 17 17 17 17 16 16 16 16 15 15 15 15 15 15 15 15 15 15 15 15 15 14
15 17 17 18 19 20 19 19 19 19 18 18 18 19 19 19 19 18 18 18 17 17 17 17 17 16 16 16 16 16 15 15 15 15 15 15 15 15 15 14 14 14 14 14
14 15 16 18 19 19 19 19 18 18 17 18 18 18 18 18 18 18 18 18 17 17 17 17 17 16 16 16 16 15 15 15 15 15 15 15 14 14 14 14 14 14 14 14
14 16 16 18 19 20 19 18 18 18 17 17 17 15 16 18 18 18 18 18 17 17 17 17 16 16 16 16 16 15 15 15 15 15 15 14 14 14 14 14 14 14 14 14
14 15 15 17 19 19 17 17 18 19 18 18 17 16 18 17 17 17 17 17 17 17 17 16 16 16 16 15 15 15 15 15 15 15 14 14 14 14 14 14 14 13 13 13
13 14 15 18 18 17 17 19 19 19 19 18 18 18 17 17 17 17 17 16 16 16 16 16 16 16 15 15 15 15 15 15 15 14 14 14 14 14 13 13 13 13 13 13
14 15 17 18 19 19 19 19 19 19 18 18 18 17 17 17 16 16 16 16 16 16 16 16 15 15 15 15 15 15 14 14 14 14 14 14 13 13 13 13 13 13 13 13
14 15 17 18 19 19 19 18 18 18 18 18 17 17 17 16 16 16 16 15 15 15 15 15 15 15 15 15 14 14 14 14 14 14 14 13 13 13 13 13 12 12 12 12
14 15 16 17 18 18 18 18 18 18 17 17 17 17 16 16 15 15 15 15 15 15 15 15 15 15 14 14 14 14 14 13 13 13 13 13 13 13 13 13 12 12 12 12
13 15 15 16 17 17 17 17 17 17 17 17 16 16 16 15 15 15 15 15 15 14 15 15 14 14 14 14 14 14 13 13 13 13 13 13 12 12 12 12 12 12 12 12
17 17 16 16 16 16 17 17 16 16 16 16 16 16 15 15 15 14 14 14 14 14 14 14 14 14 14 14 13 13 13 13 13 13 12 12 12 12 12 11 11 11 11 11
16 16 15 16 16 16 16 16 16 16 16 15 15 15 15 15 14 14 14 14 14 14 14 14 14 14 14 13 13 13 13 13 12 12 12 12 12 12 11 11 11 11 11 11
15 16 15 15 15 15 15 15 15 15 15 15 15 14 14 14 14 14 14 14 13 13 13 13 13 13 13 13 13 13 12 12 12 12 12 12 12 11 11 11 11 11 11 11
14 14 14 14 14 14 14 15 14 14 14 14 14 14 14 14 13 13 13 13 13 13 13 13 13 13 13 13 12 12 12 12 12 12 11 11 11 11 11 11 11 10 10 10
13 13 13 13 13 14 14 14 14 14 14 14 14 13 13 13 13 13 13 13 13 13 12 12 12 12 12 12 12 12 12 12 11 11 11 11 11 11 11 10 10 10 10 10
13 13 13 13 13 13 13 13 13 13 13 13 13 13 13 13 13 12 12 12 12 12 12 12 12 12 12 12 11 11 11 11 11 11 11 11 10 10 10 10 10 10 9 9
13 12 12 13 13 13 13 13 13 13 13 13 13 12 12 12 12 12 12 12 12 12 12 11 11 11 11 11 11 11 11 11 10 10 10 10 10 10 10 10 9 9 9 9
12 12 12 12 12 12 12 12 12 12 12 12 12 12 12 12 12 12 11 11 11 11 11 11 11 11 11 11 11 10 10 10 10 10 10 10 10 9 9 9 9 9 9 8
11 11 12 11 11 11 11 12 12 12 12 12 11 11 11 11 11 11 11 11 11 11 11 10 10 10 10 10 10 10 10 10 9 9 9 9 9 9 9 9 8 8 8 8
11 11 11 11 11 11 11 11 11 11 11 11 11 11 11 11 11 11 11 10 10 10 10 10 10 10 10 9 9 9 9 9 9 9 9 9 9 8 8 8 8 8 8 8
10 10 10 10 10 10 10 10 10 10 10 10 10 10 10 10 10 10 10 10 10 10 10 9 9 9 9 9 9 9 9 9 8 8 8 8 8 8 8 7 7 7 7 7
10 10 10 10 10 10 10 10 10 10 10 10 10 10 10 10 9 9 9 9 9 9 9 9 9 8 8 8 8 8 8 8 8 8 8 8 7 7 7 7 7 6 6 6
9 9 9 9 9 9 9 9 9 9 9 9 9 9 9 9 9 9 8 8 8 8 8 8 8 8 8 8 7 7 7 7 7 7 7 7 7 7 7 6 6 6 6 6
8 8 8 8 8 8 8 8 8 8 8 8 8 8 8 8 8 8 8 7 7 7 7 7 7 7 7 7 7 6 6 6 6 6 6 6 6 6 6 6 6 5 5 5
7 7 7 7 7 7 7 7 7 7 7 7 7 7 7 7 7 7 7 7 7 6 6 6 6 6 6 6 6 6 6 6 6 6 6 5 5 5 5 5 5 5 5 4
Wind_Speed
5 6 4 4 5 5 5 7 7 7 7 8 9 9 9 7 7 7 6 6 7 6 5 4 3 4 4 4 3 3 4 4 4 4 3 3 2 2 2 2 3 3 3 3
3 4 4 5 6 6 6 6 6 5 6 7 6 4 5 7 8 7 7 7 7 6 6 5 5 5 4 4 4 3 4 5 4 3 3 3 3 3 2 2 2 3 3 3
3 4 2 6 7 7 5 5 7 8 8 4 4 6 7 8 8 8 8 7 7 7 7 7 7 6 6 5 4 3 4 4 4 4 4 4 4 3 3 3 2 2 3 3
1 1 5 8 5 6 6 5 5 5 4 5 6 7 5 6 8 7 7 7 6 6 6 6 6 5 5 5 5 4 4 4 4 4 4 4 4 4 3 3 2 2 3 3
3 3 6 7 4 4 5 4 3 5 4 3 4 4 2 2 5 6 7 6 6 6 6 6 5 5 4 5 5 5 5 5 5 5 5 4 5 5 4 3 3 2 2 3
4 4 6 7 5 2 4 3 4 4 6 5 5 3 4 3 2 3 3 4 4 4 3 4 4 4 5 5 5 6 6 6 6 5 6 6 6 5 3 3 3 3 2 3
5 5 7 7 4 4 4 7 4 5 6 7 6 6 5 3 2 2 3 3 3 3 3 4 4 4 5 5 6 7 6 5 5 5 6 6 5 4 4 4 3 3 2 2
5 5 8 5 4 6 7 3 3 4 5 6 5 4 3 3 2 1 1 1 2 3 3 3 4 4 5 6 6 5 4 4 3 4 4 3 4 3 4 4 4 3 2 2
8 8 6 4 5 5 4 4 3 4 4 6 5 3 3 2 2 2 2 3 2 3 3 2 3 4 6 6 4 3 3 3 3 3 3 3 4 4 3 4 4 3 3 3
3 6 5 3 1 1 3 4 4 5 5 6 5 5 4 3 3 3 2 3 2 2 3 3 3 3 5 4 4 4 4 4 3 3 3 3 3 4 4 4 4 4 4 4
4 5 3 3 3 2 1 1 2 2 3 5 5 4 4 4 4 4 3 3 3 3 4 4 3 3 3 4 5 5 4 3 3 3 3 3 3 3 4 5 6 6 6 6
6 6 4 6 6 3 2 2 3 3 2 3 4 5 4 4 4 4 4 3 3 3 4 5 4 3 4 4 5 5 4 3 3 3 2 3 3 2 2 4 5 6 7 6
6 4 5 6 5 3 3 3 3 3 3 3 3 4 4 3 3 3 4 4 5 5 5 5 4 4 4 4 5 6 5 4 3 3 3 3 3 4 2 2 2 3 4 5
4 1 3 4 4 3 2 3 2 2 2 3 3 3 4 3 3 4 5 5 5 4 4 4 4 5 5 4 5 5 4 4 4 4 4 4 4 4 4 3 2 2 3 5
5 4 5 4 3 2 1 1 1 1 1 1 2 3 4 4 5 5 5 4 3 3 3 3 3 4 3 4 4 5 4 4 4 3 3 3 3 3 4 4 4 3 2 2
4 2 2 2 3 3 2 2 3 3 3 3 3 4 5 5 5 5 4 4 4 4 4 4 4 3 3 3 3 3 3 4 4 3 3 3 3 3 4 4 4 4 4 4
3 3 3 3 4 4 3 3 4 4 3 4 4 4 4 3 3 4 4 4 5 5 4 4 4 3 2 2 3 3 3 3 3 2 3 4 4 5 5 5 5 5 5 5
6 6 6 5 5 4 4 3 3 4 4 4 3 3 3 4 5 5 5 4 3 3 3 4 4 3 3 2 2 3 3 3 3 3 3 3 4 4 4 5 5 6 4 4
4 4 4 4 4 3 3 3 3 3 3 3 3 4 4 5 4 4 4 4 4 4 4 4 4 4 3 3 2 2 3 3 3 3 3 4 3 3 4 4 5 5 5 4
3 3 3 3 2 2 2 2 2 2 2 2 2 2 3 3 3 3 4 4 5 5 4 4 4 4 4 3 3 2 3 3 3 3 3 3 4 4 4 4 4 5 5 4
2 2 2 2 2 2 2 2 2 3 3 2 3 3 3 3 3 3 3 4 5 4 3 4 3 3 3 3 2 2 3 3 4 4 4 4 4 4 4 4 4 4 5 4
2 1 2 2 2 2 3 2 2 2 2 2 3 3 2 2 3 3 3 4 4 3 2 3 3 3 3 2 2 3 3 3 3 3 3 4 4 4 4 4 4 4 4 4
2 1 1 2 2 3 2 2 1 1 2 2 3 3 3 3 3 3 4 3 2 3 2 3 3 4 3 2 3 3 3 3 4 4 4 4 4 4 4 4 4 4 4 4
2 1 2 1 1 1 1 2 2 1 2 2 2 3 2 2 2 2 3 3 3 3 3 4 4 4 3 2 2 3 3 3 3 4 4 3 3 3 4 4 3 3 4 4
2 2 2 1 1 1 2 2 1 1 1 1 1 1 1 2 2 3 2 2 2 2 2 3 4 3 2 2 3 3 3 3 3 3 3 3 3 3 3 3 3 3 3 3
2 2 1 2 1 1 1 1 1 1 1 1 1 1 1 1 1 1 1 1 1 1 1 2 2 2 2 2 3 3 3 3 3 3 3 3 3 3 3 2 3 3 2 2
2 2 1 2 2 2 1 1 1 2 2 1 2 2 1 1 1 1 1 1 1 1 2 2 2 2 2 2 2 2 2 2 2 2 2 3 3 3 3 3 2 2 2 3
Wind_Direction
234 246 234 232 235 219 196 192 195 222 219 233 223 211 203 191 178 169 173 175 177 183 190 193 196 202 200 208 209 199 190 200 211 211 203 192 179 179 176 162 170 163 157 162
290 270 257 254 243 222 218 210 204 215 243 242 217 187 179 176 170 171 183 188 186 185 188 194 203 208 207 209 214 201 195 210 211 192 186 187 187 174 162 151 159 150 152 158
267 295 336 259 235 211 207 207 189 211 229 219 179 180 181 179 177 181 188 191 191 195 199 201 205 202 205 212 204 196 202 208 201 190 190 198 189 165 170 174 160 162 172 165
218 344 244 247 244 199 193 224 206 200 206 190 184 184 177 171 173 184 187 188 194 198 204 210 210 208 207 202 194 196 204 208 205 196 200 198 182 181 189 182 174 186 188 187
154 218 270 283 258 183 177 247 211 172 167 157 138 90 12 203 173 183 188 188 192 197 200 202 210 208 196 199 199 201 211 217 212 203 199 194 192 196 196 181 188 199 194 184
159 197 233 245 250 180 120 254 264 167 159 155 126 130 250 255 204 178 176 179 185 189 191 199 216 197 187 201 202 213 221 223 216 205 200 201 203 199 195 184 194 193 203 201
187 221 257 255 249 102 158 232 232 174 163 158 171 198 216 208 193 179 173 179 184 181 189 207 203 181 193 202 214 223 224 219 210 205 203 205 200 196 187 185 180 187 202 223
176 208 249 248 147 176 212 217 180 169 168 168 178 175 163 167 168 169 178 192 188 190 213 217 195 181 197 212 222 219 211 203 204 202 199 198 186 189 179 172 173 188 196 231
193 216 238 217 205 217 183 179 190 173 176 166 164 171 173 189 208 221 216 216 211 202 219 238 217 197 208 224 214 188 181 190 196 193 195 185 179 179 172 172 178 194 199 215
234 259 260 250 223 197 179 186 190 181 177 168 176 184 189 198 215 225 229 229 220 195 212 236 245 229 220 214 188 176 180 193 196 192 197 193 186 184 181 185 191 199 208 219
246 268 308 300 258 241 244 140 145 167 178 179 174 188 191 199 212 218 228 230 205 201 215 230 236 250 232 200 180 182 188 196 201 197 194 196 192 197 197 204 200 202 212 213
229 232 213 251 262 245 201 212 191 173 188 198 187 190 191 203 210 212 217 225 226 228 226 229 226 234 227 201 185 183 189 196 200 201 200 198 189 208 232 211 212 211 211 212
228 245 236 251 255 254 222 217 204 184 185 199 201 186 185 202 211 210 218 225 226 230 231 225 217 219 221 207 189 188 194 200 201 200 198 200 196 193 218 277 245 211 209 214
236 222 258 257 256 265 234 217 199 186 186 179 184 183 185 194 207 215 226 234 235 237 235 219 210 222 223 204 190 191 194 200 199 205 203 205 208 207 202 204 230 264 243 221
246 228 222 240 262 283 265 191 147 188 215 218 196 188 193 204 219 228 233 236 229 226 227 211 209 228 222 194 189 193 193 200 202 207 203 204 210 210 209 209 214 233 263 253
266 269 216 220 244 265 262 207 191 215 218 219 217 214 210 211 221 229 226 210 203 211 213 204 218 230 207 183 185 193 200 206 198 201 205 209 211 212 213 215 217 218 225 235
227 242 241 247 253 261 249 232 210 212 216 218 224 220 211 210 221 229 230 220 201 201 206 208 224 220 198 189 187 194 199 203 201 203 207 212 214 215 215 214 219 225 231 231
218 226 226 222 232 245 251 244 223 215 222 231 221 199 197 207 219 228 228 204 188 208 225 221 212 195 196 201 197 196 195 197 201 212 216 219 222 220 217 218 221 227 237 234
242 238 242 242 240 229 234 246 241 232 227 214 202 207 216 219 225 228 203 183 191 220 243 233 202 187 201 212 198 195 198 202 207 219 223 225 227 225 221 223 226 226 224 223
268 258 247 254 258 235 242 259 256 245 238 207 200 216 232 241 236 211 192 205 221 227 226 214 196 203 214 215 198 197 204 207 210 216 224 224 223 227 225 225 224 224 223 222
268 271 251 247 253 251 245 245 238 240 237 204 197 212 229 245 227 197 194 238 259 246 222 210 205 214 216 219 203 199 208 213 214 215 219 223 225 225 223 226 230 230 226 225
279 270 258 249 240 264 271 252 232 229 230 225 224 228 232 241 227 218 221 230 244 238 217 214 217 227 233 212 196 205 214 220 222 219 218 220 222 223 223 229 234 232 226 223
279 283 289 264 235 245 272 271 251 217 223 234 233 229 226 224 218 218 257 263 243 228 214 219 233 238 234 197 204 211 217 222 226 227 226 225 226 226 226 230 232 225 218 218
293 295 290 303 25 30 316 299 294 247 221 231 239 234 224 232 270 259 255 260 256 245 228 227 231 244 245 217 215 219 223 228 230 229 228 230 228 228 229 229 231 231 225 218
310 309 323 0 23 283 276 302 325 313 295 286 300 285 247 217 227 255 264 254 251 237 228 239 245 250 233 217 220 223 225 233 241 234 224 225 226 227 228 228 229 227 225 219
325 315 292 274 258 261 282 289 287 277 258 281 309 306 304 304 278 278 278 267 246 239 229 230 232 240 228 228 228 226 224 232 241 243 236 229 223 221 225 228 230 226 223 222
343 340 343 342 337 341 352 323 294 276 253 239 272 292 295 301 297 294 281 266 255 243 236 238 232 226 223 225 228 228 229 230 228 234 234 225 217 215 215 217 219 224 220 217
Height
1536 1531 1530 1530 1529 1529 1534 1539 1545 1540 1537 1531 1527 1526 1526 1528 1529 1531 1532 1534 1534 1535 1537 1537 1538 1538 1539 1539 1539 1539 1539 1539 1539 1540 1540 1540 1541 1541 1541 1542 1543 1544 1544 1545
1535 1529 1528 1529 1526 1526 1528 1529 1532 1532 1531 1522 1522 1524 1525 1526 1527 1529 1530 1531 1533 1534 1534 1535 1535 1536 1536 1536 1536 1536 1536 1536 1537 1537 1538 1538 1538 1538 1539 1540 1540 1541 1542 1543
1544 1534 1531 1535 1525 1523 1524 1522 1524 1530 1525 1520 1521 1522 1522 1523 1525 1526 1528 1529 1530 1531 1532 1532 1533 1533 1533 1534 1534 1534 1534 1534 1534 1535 1535 1536 1536 1536 1537 1537 1538 1539 1539 1540
1545 1540 1545 1529 1515 1515 1517 1517 1516 1517 1517 1517 1518 1519 1520 1521 1522 1524 1525 1527 1528 1529 1530 1530 1531 1531 1531 1531 1531 1531 1531 1531 1532 1532 1532 1533 1533 1534 1534 1535 1536 1536 1537 1538
1547 1546 1537 1523 1513 1513 1516 1519 1515 1515 1515 1516 1516 1518 1520 1521 1521 1522 1523 1524 1525 1526 1527 1527 1528 1528 1529 1529 1529 1529 1529 1529 1529 1529 1529 1530 1530 1531 1532 1532 1533 1533 1534 1535
1544 1543 1541 1522 1510 1508 1513 1520 1513 1512 1513 1515 1517 1522 1521 1519 1519 1520 1521 1522 1523 1524 1524 1524 1525 1525 1525 1525 1525 1525 1525 1525 1526 1527 1527 1527 1527 1528 1529 1530 1530 1531 1531 1532
1539 1539 1529 1512 1508 1509 1524 1521 1511 1510 1511 1513 1514 1516 1516 1516 1517 1518 1519 1520 1520 1521 1521 1521 1521 1522 1522 1522 1522 1522 1522 1523 1523 1523 1524 1524 1525 1525 1526 1526 1527 1527 1528 1528
1536 1537 1529 1507 1507 1511 1511 1507 1508 1508 1509 1510 1511 1512 1513 1514 1514 1515 1516 1517 1517 1518 1518 1518 1518 1519 1518 1518 1519 1519 1519 1519 1519 1520 1520 1521 1522 1522 1523 1523 1523 1524 1524 1525
1520 1518 1507 1504 1504 1504 1505 1505 1506 1506 1507 1508 1509 1509 1510 1511 1512 1512 1513 1514 1514 1514 1515 1515 1515 1515 1515 1515 1516 1516 1516 1516 1516 1517 1517 1517 1518 1518 1519 1520 1520 1520 1521 1521
1511 1506 1503 1502 1502 1502 1503 1503 1503 1504 1505 1505 1506 1507 1508 1508 1509 1509 1510 1511 1511 1511 1511 1511 1511 1512 1512 1512 1513 1513 1513 1513 1513 1514 1514 1514 1514 1515 1515 1516 1516 1517 1517 1517
1508 1503 1502 1500 1500 1501 1501 1501 1501 1502 1502 1503 1503 1504 1504 1505 1506 1506 1507 1507 1508 1508 1508 1508 1508 1508 1509 1509 1509 1509 1509 1509 1510 1510 1510 1511 1511 1511 1512 1512 1513 1513 1514 1514
1506 1501 1501 1499 1499 1499 1498 1498 1499 1499 1499 1500 1500 1500 1501 1502 1503 1503 1504 1504 1504 1505 1505 1505 1505 1505 1505 1506 1506 1506 1506 1506 1506 1506 1506 1506 1507 1507 1508 1509 1509 1509 1510 1511
1497 1497 1497 1496 1496 1495 1495 1495 1495 1495 1496 1496 1497 1497 1498 1499 1499 1500 1500 1501 1501 1501 1501 1501 1501 1501 1502 1502 1502 1502 1502 1502 1502 1502 1502 1502 1503 1503 1503 1504 1504 1505 1505 1506
1494 1494 1493 1492 1492 1492 1492 1492 1492 1492 1492 1493 1493 1494 1495 1495 1496 1496 1496 1497 1497 1497 1498 1498 1498 1498 1498 1499 1499 1499 1499 1499 1499 1499 1499 1499 1499 1499 1500 1500 1499 1500 1501 1502
1490 1491 1490 1489 1489 1489 1488 1488 1488 1488 1489 1489 1490 1491 1491 1492 1492 1492 1493 1493 1494 1494 1494 1494 1494 1495 1495 1495 1495 1495 1495 1495 1495 1495 1495 1495 1496 1496 1496 1496 1496 1496 1496 1497
1487 1487 1487 1486 1486 1485 1485 1485 1485 1485 1486 1486 1487 1488 1488 1488 1489 1489 1489 1490 1490 1490 1490 1491 1491 1491 1491 1491 1492 1492 1492 1491 1491 1491 1491 1492 1492 1492 1492 1492 1492 1492 1492 1493
1483 1482 1482 1482 1482 1482 1482 1482 1482 1482 1483 1483 1484 1484 1485 1485 1485 1485 1485 1486 1486 1487 1487 1487 1487 1488 1488 1488 1488 1488 1488 1488 1488 1487 1487 1488 1488 1488 1488 1488 1488 1488 1488 1488
1479 1479 1479 1479 1478 1478 1478 1478 1479 1479 1480 1480 1481 1481 1481 1481 1481 1481 1482 1482 1483 1483 1483 1484 1484 1484 1484 1484 1484 1484 1484 1484 1484 1483 1483 1483 1483 1483 1483 1483 1483 1483 1483 1484
1475 1475 1475 1475 1475 1475 1475 1475 1475 1476 1476 1477 1477 1477 1477 1478 1478 1478 1478 1478 1478 1478 1479 1480 1480 1480 1480 1480 1480 1480 1480 1480 1480 1479 1479 1479 1479 1479 1479 1478 1478 1478 1478 1478
1471 1471 1471 1470 1471 1471 1471 1471 1472 1472 1472 1473 1473 1473 1473 1474 1474 1474 1474 1474 1474 1474 1475 1475 1476 1476 1476 1476 1476 1475 1475 1475 1475 1475 1474 1474 1474 1473 1473 1473 1473 1473 1473 1473
1467 1467 1467 1467 1467 1467 1468 1468 1468 1468 1469 1469 1469 1469 1469 1469 1470 1470 1470 1470 1470 1471 1471 1471 1471 1471 1471 1471 1471 1471 1471 1471 1470 1470 1469 1469 1468 1468 1468 1468 1467 1467 1467 1467
1465 1464 1464 1463 1463 1464 1464 1464 1464 1464 1465 1465 1465 1465 1465 1465 1465 1465 1465 1465 1465 1466 1466 1466 1466 1466 1467 1467 1467 1466 1466 1466 1466 1465 1465 1464 1463 1462 1462 1462 1461 1461 1461 1461
1462 1461 1461 1460 1460 1460 1461 1461 1461 1461 1461 1461 1461 1461 1461 1461 1460 1460 1460 1461 1461 1461 1461 1461 1461 1462 1462 1462 1461 1461 1461 1461 1460 1460 1459 1459 1458 1458 1457 1456 1456 1455 1455 1456
1459 1459 1458 1458 1457 1457 1457 1457 1457 1457 1457 1457 1457 1457 1457 1456 1456 1456 1456 1456 1456 1456 1456 1456 1456 1456 1456 1456 1456 1456 1456 1455 1455 1455 1454 1454 1453 1453 1452 1451 1451 1450 1450 1450
1457 1456 1455 1455 1454 1454 1454 1454 1454 1453 1453 1453 1453 1453 1453 1452 1452 1452 1452 1451 1451 1451 1451 1451 1451 1451 1451 1451 1450 1450 1450 1450 1450 1450 1449 1449 1448 1448 1447 1446 1446 1445 1445 1445
1454 1453 1453 1452 1452 1451 1451 1451 1450 1450 1450 1449 1449 1449 1449 1448 1448 1447 1447 1447 1447 1446 1446 1446 1446 1446 1446 1445 1445 1445 1444 1444 1444 1444 1444 1444 1443 1442 1442 1441 1441 1440 1440 1440
1451 1451 1450 1450 1449 1449 1448 1448 1447 1447 1446 1446 1446 1445 1445 1444 1444 1443 1443 1442 1442 1441 1441 1441 1441 1440 1440 1440 1440 1440 1439 1439 1439 1439 1439 1438 1438 1437 1437 1436 1436 1436 1435 1435